Time,TemperatureF,DewpointF,PressureIn,WindDirection,WindDirectionDegrees,WindSpeedMPH,WindSpeedGustMPH,Humidity,HourlyPrecipIn,Conditions,Clouds,dailyrainin,SoftwareType,DateUTC
2013-02-02 00:04:00,28.1,15.2,30.34,WNW,282,0.0,0.0,58,0.00,,,0.00,Wunderground v.1.15,2013-02-02 05:04:00,
2013-02-02 00:09:00,28.1,16.0,30.34,WNW,282,0.0,0.0,60,0.00,,,0.00,Wunderground v.1.15,2013-02-02 05:09:00,
2013-02-02 00:14:00,28.0,15.5,30.34,WNW,282,0.0,0.0,59,0.00,,,0.00,Wunderground v.1.15,2013-02-02 05:14:00,
2013-02-02 00:19:00,27.9,15.0,30.34,WNW,282,0.0,0.0,58,0.00,,,0.00,Wunderground v.1.15,2013-02-02 05:19:00,
2013-02-02 00:24:00,27.8,15.3,30.34,WNW,282,0.0,0.0,59,0.00,,,0.00,Wunderground v.1.15,2013-02-02 05:24:00,
2013-02-02 00:30:00,27.6,15.1,30.34,WNW,282,0.0,0.0,59,0.00,,,0.00,Wunderground v.1.15,2013-02-02 05:30:00,
2013-02-02 00:35:00,27.4,15.7,30.34,WNW,282,0.0,0.0,61,0.00,,,0.00,Wunderground v.1.15,2013-02-02 05:35:00,
2013-02-02 00:40:00,27.3,14.1,30.34,WNW,282,0.0,0.0,57,0.00,,,0.00,Wunderground v.1.15,2013-02-02 05:40:00,
2013-02-02 00:45:00,27.5,14.6,30.34,WNW,282,0.0,0.0,58,0.00,,,0.00,Wunderground v.1.15,2013-02-02 05:45:00,
2013-02-02 00:51:00,27.6,16.6,30.33,WNW,282,0.0,0.0,63,0.00,,,0.00,Wunderground v.1.15,2013-02-02 05:51:00,
2013-02-02 00:56:00,27.5,15.8,30.34,WNW,282,0.0,0.0,61,0.00,,,0.00,Wunderground v.1.15,2013-02-02 05:56:00,
2013-02-02 01:01:00,27.3,16.0,30.34,WNW,282,0.0,0.0,62,0.00,,,0.00,Wunderground v.1.15,2013-02-02 06:01:00,
2013-02-02 01:06:00,27.2,16.3,30.34,WNW,282,0.0,0.0,63,0.00,,,0.00,Wunderground v.1.15,2013-02-02 06:06:00,
2013-02-02 01:12:00,27.0,16.4,30.34,WNW,282,0.0,0.0,64,0.00,,,0.00,Wunderground v.1.15,2013-02-02 06:12:00,
2013-02-02 01:18:00,26.8,17.0,30.34,WNW,282,0.0,0.0,66,0.00,,,0.00,Wunderground v.1.15,2013-02-02 06:18:00,
2013-02-02 01:23:00,26.7,16.1,30.34,WNW,282,0.0,0.0,64,0.00,,,0.00,Wunderground v.1.15,2013-02-02 06:23:00,
2013-02-02 01:28:00,26.6,15.7,30.34,WNW,282,0.0,0.0,63,0.00,,,0.00,Wunderground v.1.15,2013-02-02 06:28:00,
2013-02-02 01:33:00,26.7,16.1,30.34,WNW,282,0.0,0.0,64,0.00,,,0.00,Wunderground v.1.15,2013-02-02 06:33:00,
2013-02-02 01:38:00,26.7,15.8,30.34,WNW,282,0.0,0.0,63,0.00,,,0.00,Wunderground v.1.15,2013-02-02 06:38:00,
2013-02-02 01:44:00,26.7,16.5,30.33,WNW,282,0.0,0.0,65,0.00,,,0.00,Wunderground v.1.15,2013-02-02 06:44:00,
2013-02-02 01:49:00,26.7,17.2,30.33,WNW,282,0.0,0.0,67,0.00,,,0.00,Wunderground v.1.15,2013-02-02 06:49:00,
2013-02-02 01:55:00,26.6,17.1,30.34,WNW,282,0.0,0.0,67,0.00,,,0.00,Wunderground v.1.15,2013-02-02 06:55:00,
2013-02-02 02:01:00,26.5,16.3,30.34,WNW,282,0.0,0.0,65,0.00,,,0.00,Wunderground v.1.15,2013-02-02 07:01:00,
2013-02-02 02:06:00,26.3,16.8,30.35,WNW,282,0.0,0.0,67,0.00,,,0.00,Wunderground v.1.15,2013-02-02 07:06:00,
2013-02-02 02:11:00,26.1,16.6,30.34,WNW,282,0.0,0.0,67,0.00,,,0.00,Wunderground v.1.15,2013-02-02 07:11:00,
2013-02-02 02:16:00,26.0,16.5,30.34,WNW,282,0.0,0.0,67,0.00,,,0.00,Wunderground v.1.15,2013-02-02 07:16:00,
2013-02-02 02:21:00,26.0,16.5,30.33,WNW,282,0.0,0.0,67,0.00,,,0.00,Wunderground v.1.15,2013-02-02 07:21:00,
2013-02-02 02:26:00,25.8,16.7,30.34,WNW,282,0.0,0.0,68,0.00,,,0.00,Wunderground v.1.15,2013-02-02 07:26:00,
2013-02-02 02:31:00,25.7,16.9,30.33,WNW,282,0.0,0.0,69,0.00,,,0.00,Wunderground v.1.15,2013-02-02 07:31:00,
2013-02-02 02:36:00,25.6,16.8,30.33,WNW,282,0.0,0.0,69,0.00,,,0.00,Wunderground v.1.15,2013-02-02 07:36:00,
2013-02-02 02:41:00,25.4,17.0,30.33,WNW,282,0.0,0.0,70,0.00,,,0.00,Wunderground v.1.15,2013-02-02 07:41:00,
2013-02-02 02:46:00,25.3,17.2,30.33,WNW,282,0.0,0.0,71,0.00,,,0.00,Wunderground v.1.15,2013-02-02 07:46:00,
2013-02-02 02:51:00,25.1,17.0,30.34,WNW,282,0.0,0.0,71,0.00,,,0.00,Wunderground v.1.15,2013-02-02 07:51:00,
2013-02-02 02:56:00,24.9,16.8,30.34,WNW,282,0.0,0.0,71,0.00,,,0.00,Wunderground v.1.15,2013-02-02 07:56:00,
2013-02-02 03:01:00,24.9,16.5,30.33,WNW,282,0.0,0.0,70,0.00,,,0.00,Wunderground v.1.15,2013-02-02 08:01:00,
2013-02-02 03:06:00,24.8,16.1,30.34,WNW,282,0.0,0.0,69,0.00,,,0.00,Wunderground v.1.15,2013-02-02 08:06:00,
2013-02-02 03:11:00,24.8,16.4,30.34,WNW,282,0.0,0.0,70,0.00,,,0.00,Wunderground v.1.15,2013-02-02 08:11:00,
2013-02-02 03:16:00,24.7,15.6,30.33,WNW,282,0.0,0.0,68,0.00,,,0.00,Wunderground v.1.15,2013-02-02 08:16:00,
2013-02-02 03:21:00,24.6,15.9,30.33,WNW,282,0.0,0.0,69,0.00,,,0.00,Wunderground v.1.15,2013-02-02 08:21:00,
2013-02-02 03:26:00,24.5,16.1,30.33,WNW,282,0.0,0.0,70,0.00,,,0.00,Wunderground v.1.15,2013-02-02 08:26:00,
2013-02-02 03:31:00,24.4,15.7,30.33,WNW,282,0.0,0.0,69,0.00,,,0.00,Wunderground v.1.15,2013-02-02 08:31:00,
2013-02-02 03:36:00,24.3,16.2,30.33,WNW,282,0.0,0.0,71,0.00,,,0.00,Wunderground v.1.15,2013-02-02 08:36:00,
2013-02-02 03:41:00,24.1,17.0,30.33,WNW,282,0.0,0.0,74,0.00,,,0.00,Wunderground v.1.15,2013-02-02 08:41:00,
2013-02-02 03:46:00,23.9,16.5,30.34,WNW,282,0.0,0.0,73,0.00,,,0.00,Wunderground v.1.15,2013-02-02 08:46:00,
2013-02-02 03:51:00,23.9,15.9,30.33,WNW,282,0.0,0.0,71,0.00,,,0.00,Wunderground v.1.15,2013-02-02 08:51:00,
2013-02-02 03:56:00,23.9,15.9,30.33,WNW,282,0.0,0.0,71,0.00,,,0.00,Wunderground v.1.15,2013-02-02 08:56:00,
2013-02-02 04:01:00,24.0,15.6,30.33,WNW,282,0.0,0.0,70,0.00,,,0.00,Wunderground v.1.15,2013-02-02 09:01:00,
2013-02-02 04:06:00,23.9,15.9,30.33,WNW,282,0.0,0.0,71,0.00,,,0.00,Wunderground v.1.15,2013-02-02 09:06:00,
2013-02-02 04:11:00,23.9,16.2,30.33,WNW,282,0.0,0.0,72,0.00,,,0.00,Wunderground v.1.15,2013-02-02 09:11:00,
2013-02-02 04:16:00,23.9,16.5,30.33,WNW,282,0.0,0.0,73,0.00,,,0.00,Wunderground v.1.15,2013-02-02 09:16:00,
2013-02-02 04:21:00,24.0,16.0,30.33,WNW,282,0.0,0.0,71,0.00,,,0.00,Wunderground v.1.15,2013-02-02 09:21:00,
2013-02-02 04:26:00,24.0,16.3,30.32,WNW,282,0.0,0.0,72,0.00,,,0.00,Wunderground v.1.15,2013-02-02 09:26:00,
2013-02-02 04:31:00,24.0,15.3,30.32,WNW,282,0.0,0.0,69,0.00,,,0.00,Wunderground v.1.15,2013-02-02 09:31:00,
2013-02-02 04:36:00,24.1,16.4,30.32,WNW,282,0.0,0.0,72,0.00,,,0.00,Wunderground v.1.15,2013-02-02 09:36:00,
2013-02-02 04:41:00,24.1,16.1,30.32,WNW,282,0.0,0.0,71,0.00,,,0.00,Wunderground v.1.15,2013-02-02 09:41:00,
2013-02-02 04:46:00,24.0,15.3,30.32,WNW,282,0.0,0.0,69,0.00,,,0.00,Wunderground v.1.15,2013-02-02 09:46:00,
2013-02-02 04:51:00,23.9,15.5,30.33,WNW,282,0.0,0.0,70,0.00,,,0.00,Wunderground v.1.15,2013-02-02 09:51:00,
2013-02-02 04:56:00,23.7,15.3,30.33,WNW,282,0.0,0.0,70,0.00,,,0.00,Wunderground v.1.15,2013-02-02 09:56:00,
2013-02-02 05:01:00,23.3,16.2,30.33,WNW,282,0.0,0.0,74,0.00,,,0.00,Wunderground v.1.15,2013-02-02 10:01:00,
2013-02-02 05:06:00,23.1,16.4,30.33,WNW,282,0.0,0.0,75,0.00,,,0.00,Wunderground v.1.15,2013-02-02 10:06:00,
2013-02-02 05:11:00,22.9,15.5,30.33,WNW,282,0.0,0.0,73,0.00,,,0.00,Wunderground v.1.15,2013-02-02 10:11:00,
2013-02-02 05:17:00,22.7,15.7,30.33,WNW,282,0.0,0.0,74,0.00,,,0.00,Wunderground v.1.15,2013-02-02 10:17:00,
2013-02-02 05:22:00,22.8,16.1,30.33,WNW,282,0.0,0.0,75,0.00,,,0.00,Wunderground v.1.15,2013-02-02 10:22:00,
2013-02-02 05:27:00,22.8,16.1,30.33,WNW,282,0.0,0.0,75,0.00,,,0.00,Wunderground v.1.15,2013-02-02 10:27:00,
2013-02-02 05:32:00,22.7,16.0,30.33,WNW,282,0.0,0.0,75,0.00,,,0.00,Wunderground v.1.15,2013-02-02 10:32:00,
2013-02-02 05:37:00,22.5,16.4,30.33,WNW,282,0.0,0.0,77,0.00,,,0.00,Wunderground v.1.15,2013-02-02 10:37:00,
2013-02-02 05:42:00,22.4,16.0,30.33,WNW,282,0.0,0.0,76,0.00,,,0.00,Wunderground v.1.15,2013-02-02 10:42:00,
2013-02-02 05:47:00,22.5,16.7,30.33,WNW,282,0.0,0.0,78,0.00,,,0.00,Wunderground v.1.15,2013-02-02 10:47:00,
2013-02-02 05:52:00,22.5,16.7,30.33,WNW,282,0.0,0.0,78,0.00,,,0.00,Wunderground v.1.15,2013-02-02 10:52:00,
2013-02-02 05:57:00,22.5,16.4,30.33,WNW,282,0.0,0.0,77,0.00,,,0.00,Wunderground v.1.15,2013-02-02 10:57:00,
2013-02-02 06:02:00,22.6,16.8,30.33,WNW,282,0.0,0.0,78,0.00,,,0.00,Wunderground v.1.15,2013-02-02 11:02:00,
2013-02-02 06:07:00,22.6,16.8,30.33,WNW,282,0.0,0.0,78,0.00,,,0.00,Wunderground v.1.15,2013-02-02 11:07:00,
2013-02-02 06:12:00,22.6,17.1,30.33,WNW,282,0.0,0.0,79,0.00,,,0.00,Wunderground v.1.15,2013-02-02 11:12:00,
2013-02-02 06:17:00,22.6,16.8,30.33,WNW,282,0.0,0.0,78,0.00,,,0.00,Wunderground v.1.15,2013-02-02 11:17:00,
2013-02-02 06:22:00,22.5,16.7,30.33,WNW,282,0.0,0.0,78,0.00,,,0.00,Wunderground v.1.15,2013-02-02 11:22:00,
2013-02-02 06:27:00,22.3,16.5,30.34,WNW,282,0.0,0.0,78,0.00,,,0.00,Wunderground v.1.15,2013-02-02 11:27:00,
2013-02-02 06:32:00,22.1,16.3,30.33,WNW,282,0.0,0.0,78,0.00,,,0.00,Wunderground v.1.15,2013-02-02 11:32:00,
2013-02-02 06:37:00,21.8,16.0,30.33,WNW,282,0.0,0.0,78,0.00,,,0.00,Wunderground v.1.15,2013-02-02 11:37:00,
2013-02-02 06:42:00,21.5,15.7,30.33,WNW,282,0.0,0.0,78,0.00,,,0.00,Wunderground v.1.15,2013-02-02 11:42:00,
2013-02-02 06:47:00,21.5,16.0,30.33,WNW,282,0.0,0.0,79,0.00,,,0.00,Wunderground v.1.15,2013-02-02 11:47:00,
2013-02-02 06:52:00,21.5,16.6,30.34,WNW,282,0.0,0.0,81,0.00,,,0.00,Wunderground v.1.15,2013-02-02 11:52:00,
2013-02-02 06:57:00,21.4,16.5,30.34,WNW,282,0.0,0.0,81,0.00,,,0.00,Wunderground v.1.15,2013-02-02 11:57:00,
2013-02-02 07:02:00,21.2,16.0,30.34,WNW,282,0.0,0.0,80,0.00,,,0.00,Wunderground v.1.15,2013-02-02 12:02:00,
2013-02-02 07:07:00,20.9,16.0,30.34,WNW,282,0.0,0.0,81,0.00,,,0.00,Wunderground v.1.15,2013-02-02 12:07:00,
2013-02-02 07:13:00,20.7,15.8,30.34,WNW,282,0.0,0.0,81,0.00,,,0.00,Wunderground v.1.15,2013-02-02 12:13:00,
2013-02-02 07:18:00,20.6,16.0,30.33,WNW,282,0.0,0.0,82,0.00,,,0.00,Wunderground v.1.15,2013-02-02 12:18:00,
2013-02-02 07:23:00,20.6,16.0,30.34,WNW,282,0.0,0.0,82,0.00,,,0.00,Wunderground v.1.15,2013-02-02 12:23:00,
2013-02-02 07:28:00,20.6,16.0,30.34,WNW,282,0.0,0.0,82,0.00,,,0.00,Wunderground v.1.15,2013-02-02 12:28:00,
2013-02-02 07:33:00,20.4,16.1,30.34,WNW,282,0.0,0.0,83,0.00,,,0.00,Wunderground v.1.15,2013-02-02 12:33:00,
2013-02-02 07:38:00,20.3,16.0,30.35,WNW,282,0.0,0.0,83,0.00,,,0.00,Wunderground v.1.15,2013-02-02 12:38:00,
2013-02-02 07:43:00,20.2,15.9,30.34,WNW,282,0.0,0.0,83,0.00,,,0.00,Wunderground v.1.15,2013-02-02 12:43:00,
2013-02-02 07:48:00,20.1,16.0,30.35,WNW,282,0.0,0.0,84,0.00,,,0.00,Wunderground v.1.15,2013-02-02 12:48:00,
2013-02-02 07:53:00,20.2,16.1,30.35,WNW,282,0.0,0.0,84,0.00,,,0.00,Wunderground v.1.15,2013-02-02 12:53:00,
2013-02-02 07:58:00,20.3,16.2,30.34,WNW,282,0.0,0.0,84,0.00,,,0.00,Wunderground v.1.15,2013-02-02 12:58:00,
2013-02-02 08:03:00,20.5,16.4,30.35,WNW,282,0.0,0.0,84,0.00,,,0.00,Wunderground v.1.15,2013-02-02 13:03:00,
2013-02-02 08:08:00,20.9,16.5,30.35,WNW,282,0.0,0.0,83,0.00,,,0.00,Wunderground v.1.15,2013-02-02 13:08:00,
2013-02-02 08:13:00,21.7,17.3,30.35,WNW,282,0.0,0.0,83,0.00,,,0.00,Wunderground v.1.15,2013-02-02 13:13:00,
2013-02-02 08:18:00,22.4,17.5,30.35,WNW,282,0.0,0.0,81,0.00,,,0.00,Wunderground v.1.15,2013-02-02 13:18:00,
2013-02-02 08:23:00,23.0,17.7,30.36,WNW,282,0.0,0.0,80,0.00,,,0.00,Wunderground v.1.15,2013-02-02 13:23:00,
2013-02-02 08:28:00,23.6,17.4,30.35,WNW,282,0.0,0.0,77,0.00,,,0.00,Wunderground v.1.15,2013-02-02 13:28:00,
2013-02-02 08:34:00,24.4,17.3,30.35,WNW,282,0.0,0.0,74,0.00,,,0.00,Wunderground v.1.15,2013-02-02 13:34:00,
2013-02-02 08:39:00,25.1,18.0,30.35,WNW,282,0.0,0.0,74,0.00,,,0.00,Wunderground v.1.15,2013-02-02 13:39:00,
2013-02-02 08:44:00,25.9,18.1,30.35,WNW,282,0.0,0.0,72,0.00,,,0.00,Wunderground v.1.15,2013-02-02 13:44:00,
2013-02-02 08:49:00,26.6,18.5,30.35,WNW,282,0.0,0.0,71,0.00,,,0.00,Wunderground v.1.15,2013-02-02 13:49:00,
2013-02-02 08:54:00,27.4,18.9,30.35,WNW,282,0.0,0.0,70,0.00,,,0.00,Wunderground v.1.15,2013-02-02 13:54:00,
2013-02-02 08:59:00,28.0,18.5,30.35,WNW,282,0.0,0.0,67,0.00,,,0.00,Wunderground v.1.15,2013-02-02 13:59:00,
2013-02-02 09:04:00,28.4,18.8,30.35,WNW,282,0.0,0.0,67,0.00,,,0.00,Wunderground v.1.15,2013-02-02 14:04:00,
2013-02-02 09:09:00,28.6,18.7,30.34,WNW,282,0.0,0.0,66,0.00,,,0.00,Wunderground v.1.15,2013-02-02 14:09:00,
2013-02-02 09:14:00,29.1,19.2,30.34,WNW,282,0.0,0.0,66,0.00,,,0.00,Wunderground v.1.15,2013-02-02 14:14:00,
2013-02-02 09:19:00,29.6,18.9,30.34,WNW,282,0.0,0.0,64,0.00,,,0.00,Wunderground v.1.15,2013-02-02 14:19:00,
2013-02-02 09:24:00,30.0,18.9,30.34,WNW,282,0.0,0.0,63,0.00,,,0.00,Wunderground v.1.15,2013-02-02 14:24:00,
2013-02-02 09:29:00,30.6,19.5,30.34,WNW,282,0.0,0.0,63,0.00,,,0.00,Wunderground v.1.15,2013-02-02 14:29:00,
2013-02-02 09:34:00,31.4,19.9,30.33,South,186,5.0,5.0,62,0.00,,,0.00,Wunderground v.1.15,2013-02-02 14:34:00,
2013-02-02 09:39:00,32.7,19.5,30.33,SE,139,2.0,9.0,58,0.00,,,0.00,Wunderground v.1.15,2013-02-02 14:39:00,
2013-02-02 09:44:00,33.6,19.6,30.33,South,175,6.0,8.0,56,0.00,,,0.00,Wunderground v.1.15,2013-02-02 14:44:00,
2013-02-02 09:49:00,34.4,18.6,30.33,South,188,7.0,10.0,52,0.00,,,0.00,Wunderground v.1.15,2013-02-02 14:49:00,
2013-02-02 09:54:00,35.2,17.9,30.33,South,184,7.0,10.0,49,0.00,,,0.00,Wunderground v.1.15,2013-02-02 14:54:00,
2013-02-02 09:59:00,35.9,17.6,30.33,SSE,156,9.0,10.0,47,0.00,,,0.00,Wunderground v.1.15,2013-02-02 14:59:00,
2013-02-02 10:04:00,36.4,17.6,30.33,SW,216,4.0,10.0,46,0.00,,,0.00,Wunderground v.1.15,2013-02-02 15:04:00,
2013-02-02 10:09:00,36.9,18.0,30.33,South,179,8.0,10.0,46,0.00,,,0.00,Wunderground v.1.15,2013-02-02 15:09:00,
2013-02-02 10:14:00,37.2,16.7,30.33,SSW,206,4.0,9.0,43,0.00,,,0.00,Wunderground v.1.15,2013-02-02 15:14:00,
2013-02-02 10:19:00,37.5,17.5,30.33,SSE,163,6.0,9.0,44,0.00,,,0.00,Wunderground v.1.15,2013-02-02 15:19:00,
2013-02-02 10:24:00,38.0,18.0,30.33,South,188,2.0,6.0,44,0.00,,,0.00,Wunderground v.1.15,2013-02-02 15:24:00,
2013-02-02 10:29:00,38.5,17.4,30.33,WSW,257,4.0,7.0,42,0.00,,,0.00,Wunderground v.1.15,2013-02-02 15:29:00,
2013-02-02 10:34:00,38.7,17.0,30.33,South,191,4.0,5.0,41,0.00,,,0.00,Wunderground v.1.15,2013-02-02 15:34:00,
2013-02-02 10:39:00,39.2,16.3,30.33,SW,227,0.0,6.0,39,0.00,,,0.00,Wunderground v.1.15,2013-02-02 15:39:00,
2013-02-02 10:44:00,39.3,17.0,30.33,SW,225,3.0,6.0,40,0.00,,,0.00,Wunderground v.1.15,2013-02-02 15:44:00,
2013-02-02 10:49:00,39.7,16.7,30.32,WSW,257,5.0,10.0,39,0.00,,,0.00,Wunderground v.1.15,2013-02-02 15:49:00,
2013-02-02 10:54:00,40.1,15.9,30.32,WSW,238,5.0,7.0,37,0.00,,,0.00,Wunderground v.1.15,2013-02-02 15:54:00,
2013-02-02 10:59:00,40.4,16.1,30.32,SSW,209,5.0,8.0,37,0.00,,,0.00,Wunderground v.1.15,2013-02-02 15:59:00,
2013-02-02 11:04:00,40.7,15.8,30.32,SW,217,7.0,8.0,36,0.00,,,0.00,Wunderground v.1.15,2013-02-02 16:04:00,
2013-02-02 11:09:00,41.1,15.5,30.31,SSW,198,1.0,8.0,35,0.00,,,0.00,Wunderground v.1.15,2013-02-02 16:09:00,
2013-02-02 11:14:00,41.5,14.5,30.31,SW,219,3.0,7.0,33,0.00,,,0.00,Wunderground v.1.15,2013-02-02 16:14:00,
2013-02-02 11:19:00,41.8,13.3,30.31,SW,217,6.0,8.0,31,0.00,,,0.00,Wunderground v.1.15,2013-02-02 16:19:00,
2013-02-02 11:24:00,42.1,13.6,30.30,SW,215,0.0,5.0,31,0.00,,,0.00,Wunderground v.1.15,2013-02-02 16:24:00,
2013-02-02 11:29:00,42.4,13.1,30.30,SW,217,5.0,9.0,30,0.00,,,0.00,Wunderground v.1.15,2013-02-02 16:29:00,
2013-02-02 11:34:00,42.9,13.5,30.29,SSW,205,0.0,5.0,30,0.00,,,0.00,Wunderground v.1.15,2013-02-02 16:34:00,
2013-02-02 11:39:00,43.5,14.1,30.28,SW,218,5.0,7.0,30,0.00,,,0.00,Wunderground v.1.15,2013-02-02 16:39:00,
2013-02-02 11:44:00,43.9,13.6,30.28,SSW,198,2.0,6.0,29,0.00,,,0.00,Wunderground v.1.15,2013-02-02 16:44:00,
2013-02-02 11:49:00,44.1,13.0,30.28,SW,215,7.0,9.0,28,0.00,,,0.00,Wunderground v.1.15,2013-02-02 16:49:00,
2013-02-02 11:54:00,44.3,14.0,30.27,WSW,240,7.0,11.0,29,0.00,,,0.00,Wunderground v.1.15,2013-02-02 16:54:00,
2013-02-02 11:59:00,44.6,12.6,30.27,West,272,2.0,11.0,27,0.00,,,0.00,Wunderground v.1.15,2013-02-02 16:59:00,
2013-02-02 12:04:00,45.0,12.1,30.27,SSW,202,8.0,10.0,26,0.00,,,0.00,Wunderground v.1.15,2013-02-02 17:04:00,
2013-02-02 12:09:00,45.4,13.3,30.26,SW,227,3.0,10.0,27,0.00,,,0.00,Wunderground v.1.15,2013-02-02 17:09:00,
2013-02-02 12:14:00,45.7,11.8,30.26,SSW,208,0.0,6.0,25,0.00,,,0.00,Wunderground v.1.15,2013-02-02 17:14:00,
2013-02-02 12:19:00,45.9,12.0,30.25,South,190,5.0,8.0,25,0.00,,,0.00,Wunderground v.1.15,2013-02-02 17:19:00,
2013-02-02 12:24:00,46.0,13.0,30.25,West,265,7.0,8.0,26,0.00,,,0.00,Wunderground v.1.15,2013-02-02 17:24:00,
2013-02-02 12:29:00,46.3,12.3,30.25,SW,236,3.0,11.0,25,0.00,,,0.00,Wunderground v.1.15,2013-02-02 17:29:00,
2013-02-02 12:34:00,46.8,11.8,30.24,SSW,205,5.0,7.0,24,0.00,,,0.00,Wunderground v.1.15,2013-02-02 17:34:00,
2013-02-02 12:39:00,47.1,13.0,30.25,West,269,2.0,7.0,25,0.00,,,0.00,Wunderground v.1.15,2013-02-02 17:39:00,
2013-02-02 12:44:00,47.2,12.2,30.24,West,261,3.0,8.0,24,0.00,,,0.00,Wunderground v.1.15,2013-02-02 17:44:00,
2013-02-02 12:49:00,47.7,12.6,30.24,SW,217,4.0,8.0,24,0.00,,,0.00,Wunderground v.1.15,2013-02-02 17:49:00,
2013-02-02 12:54:00,48.3,12.2,30.24,SSW,202,7.0,8.0,23,0.00,,,0.00,Wunderground v.1.15,2013-02-02 17:54:00,
2013-02-02 13:00:00,48.3,12.2,30.23,SSW,207,0.0,8.0,23,0.00,,,0.00,Wunderground v.1.15,2013-02-02 18:00:00,
2013-02-02 13:05:00,48.8,12.6,30.23,WSW,239,0.0,10.0,23,0.00,,,0.00,Wunderground v.1.15,2013-02-02 18:05:00,
2013-02-02 13:10:00,49.1,12.8,30.23,WNW,294,1.0,10.0,23,0.00,,,0.00,Wunderground v.1.15,2013-02-02 18:10:00,
2013-02-02 13:15:00,49.7,12.3,30.23,NE,47,3.0,6.0,22,0.00,,,0.00,Wunderground v.1.15,2013-02-02 18:15:00,
2013-02-02 13:20:00,49.9,12.5,30.22,WSW,255,0.0,6.0,22,0.00,,,0.00,Wunderground v.1.15,2013-02-02 18:20:00,
2013-02-02 13:25:00,50.1,13.7,30.22,SW,225,0.0,5.0,23,0.00,,,0.00,Wunderground v.1.15,2013-02-02 18:25:00,
2013-02-02 13:30:00,50.6,13.1,30.22,NNW,345,4.0,7.0,22,0.00,,,0.00,Wunderground v.1.15,2013-02-02 18:30:00,
2013-02-02 13:35:00,50.6,13.1,30.22,WNW,282,8.0,8.0,22,0.00,,,0.00,Wunderground v.1.15,2013-02-02 18:35:00,
2013-02-02 13:40:00,50.5,13.0,30.21,West,261,3.0,9.0,22,0.00,,,0.00,Wunderground v.1.15,2013-02-02 18:40:00,
2013-02-02 13:45:00,50.7,12.1,30.21,NNW,344,5.0,6.0,21,0.00,,,0.00,Wunderground v.1.15,2013-02-02 18:45:00,
2013-02-02 13:50:00,51.0,15.4,30.21,East,82,4.0,6.0,24,0.00,,,0.00,Wunderground v.1.15,2013-02-02 18:50:00,
2013-02-02 13:55:00,51.3,13.7,30.20,North,5,2.0,8.0,22,0.00,,,0.00,Wunderground v.1.15,2013-02-02 18:55:00,
2013-02-02 14:00:00,51.7,16.0,30.20,NE,42,4.0,9.0,24,0.00,,,0.00,Wunderground v.1.15,2013-02-02 19:00:00,
2013-02-02 14:05:00,52.2,14.4,30.20,NE,45,0.0,7.0,22,0.00,,,0.00,Wunderground v.1.15,2013-02-02 19:05:00,
2013-02-02 14:10:00,52.2,15.5,30.20,NNE,30,1.0,7.0,23,0.00,,,0.00,Wunderground v.1.15,2013-02-02 19:10:00,
2013-02-02 14:15:00,52.2,14.4,30.19,WSW,242,4.0,7.0,22,0.00,,,0.00,Wunderground v.1.15,2013-02-02 19:15:00,
2013-02-02 14:20:00,52.5,13.6,30.19,West,261,2.0,7.0,21,0.00,,,0.00,Wunderground v.1.15,2013-02-02 19:20:00,
2013-02-02 14:25:00,52.7,13.8,30.19,NE,55,5.0,7.0,21,0.00,,,0.00,Wunderground v.1.15,2013-02-02 19:25:00,
2013-02-02 14:30:00,52.4,13.5,30.18,WSW,250,2.0,9.0,21,0.00,,,0.00,Wunderground v.1.15,2013-02-02 19:30:00,
2013-02-02 14:35:00,52.6,14.8,30.18,WSW,252,0.0,4.0,22,0.00,,,0.00,Wunderground v.1.15,2013-02-02 19:35:00,
2013-02-02 14:40:00,53.0,15.1,30.18,NNE,16,0.0,4.0,22,0.00,,,0.00,Wunderground v.1.15,2013-02-02 19:40:00,
2013-02-02 14:45:00,53.5,15.5,30.18,SSW,211,5.0,7.0,22,0.00,,,0.00,Wunderground v.1.15,2013-02-02 19:45:00,
2013-02-02 14:50:00,53.5,14.5,30.18,West,264,5.0,10.0,21,0.00,,,0.00,Wunderground v.1.15,2013-02-02 19:50:00,
2013-02-02 14:55:00,53.1,14.1,30.18,WSW,247,0.0,8.0,21,0.00,,,0.00,Wunderground v.1.15,2013-02-02 19:55:00,
2013-02-02 15:00:00,53.3,15.4,30.17,NNE,15,2.0,8.0,22,0.00,,,0.00,Wunderground v.1.15,2013-02-02 20:00:00,
2013-02-02 15:05:00,53.1,15.2,30.17,NE,36,0.0,7.0,22,0.00,,,0.00,Wunderground v.1.15,2013-02-02 20:05:00,
2013-02-02 15:10:00,53.3,15.4,30.17,SW,219,6.0,7.0,22,0.00,,,0.00,Wunderground v.1.15,2013-02-02 20:10:00,
2013-02-02 15:15:00,53.5,15.5,30.17,WNW,287,1.0,5.0,22,0.00,,,0.00,Wunderground v.1.15,2013-02-02 20:15:00,
2013-02-02 15:20:00,53.5,14.5,30.17,NE,34,0.0,5.0,21,0.00,,,0.00,Wunderground v.1.15,2013-02-02 20:20:00,
2013-02-02 15:25:00,53.6,15.6,30.16,NW,308,2.0,6.0,22,0.00,,,0.00,Wunderground v.1.15,2013-02-02 20:25:00,
2013-02-02 15:30:00,53.5,15.5,30.16,WSW,244,5.0,6.0,22,0.00,,,0.00,Wunderground v.1.15,2013-02-02 20:30:00,
2013-02-02 15:35:00,53.7,14.6,30.16,WSW,238,0.0,5.0,21,0.00,,,0.00,Wunderground v.1.15,2013-02-02 20:35:00,
2013-02-02 15:40:00,53.9,15.9,30.16,NW,319,1.0,6.0,22,0.00,,,0.00,Wunderground v.1.15,2013-02-02 20:40:00,
2013-02-02 15:45:00,54.2,15.1,30.16,North,355,0.0,2.0,21,0.00,,,0.00,Wunderground v.1.15,2013-02-02 20:45:00,
2013-02-02 15:50:00,54.6,15.4,30.15,WSW,244,3.0,7.0,21,0.00,,,0.00,Wunderground v.1.15,2013-02-02 20:50:00,
2013-02-02 15:55:00,54.6,16.5,30.15,West,279,4.0,10.0,22,0.00,,,0.00,Wunderground v.1.15,2013-02-02 20:55:00,
2013-02-02 16:00:00,54.6,16.5,30.15,West,266,7.0,10.0,22,0.00,,,0.00,Wunderground v.1.15,2013-02-02 21:00:00,
2013-02-02 16:05:00,54.6,16.5,30.15,West,280,0.0,5.0,22,0.00,,,0.00,Wunderground v.1.15,2013-02-02 21:05:00,
2013-02-02 16:10:00,55.0,16.8,30.14,SSW,193,5.0,5.0,22,0.00,,,0.00,Wunderground v.1.15,2013-02-02 21:10:00,
2013-02-02 16:15:00,55.4,17.1,30.14,SW,231,2.0,6.0,22,0.00,,,0.00,Wunderground v.1.15,2013-02-02 21:15:00,
2013-02-02 16:20:00,55.3,17.0,30.14,SW,224,7.0,10.0,22,0.00,,,0.00,Wunderground v.1.15,2013-02-02 21:20:00,
2013-02-02 16:25:00,55.0,16.8,30.14,SW,218,3.0,8.0,22,0.00,,,0.00,Wunderground v.1.15,2013-02-02 21:25:00,
2013-02-02 16:31:00,54.8,16.6,30.14,SW,219,5.0,8.0,22,0.00,,,0.00,Wunderground v.1.15,2013-02-02 21:31:00,
2013-02-02 16:36:00,54.9,16.7,30.13,SW,231,2.0,5.0,22,0.00,,,0.00,Wunderground v.1.15,2013-02-02 21:36:00,
2013-02-02 16:41:00,54.9,16.7,30.13,SW,229,0.0,5.0,22,0.00,,,0.00,Wunderground v.1.15,2013-02-02 21:41:00,
2013-02-02 16:46:00,55.0,15.7,30.13,SW,228,0.0,3.0,21,0.00,,,0.00,Wunderground v.1.15,2013-02-02 21:46:00,
2013-02-02 16:51:00,55.3,17.0,30.13,SW,228,0.0,3.0,22,0.00,,,0.00,Wunderground v.1.15,2013-02-02 21:51:00,
2013-02-02 16:56:00,55.5,17.2,30.13,SW,229,0.0,4.0,22,0.00,,,0.00,Wunderground v.1.15,2013-02-02 21:56:00,
2013-02-02 17:01:00,55.4,18.2,30.13,SW,229,0.0,0.0,23,0.00,,,0.00,Wunderground v.1.15,2013-02-02 22:01:00,
2013-02-02 17:06:00,55.4,18.2,30.13,WNW,293,2.0,7.0,23,0.00,,,0.00,Wunderground v.1.15,2013-02-02 22:06:00,
2013-02-02 17:11:00,55.1,18.9,30.13,WSW,257,3.0,3.0,24,0.00,,,0.00,Wunderground v.1.15,2013-02-02 22:11:00,
2013-02-02 17:16:00,55.1,19.9,30.12,West,277,5.0,9.0,25,0.00,,,0.00,Wunderground v.1.15,2013-02-02 22:16:00,
2013-02-02 17:21:00,54.8,19.6,30.12,WSW,247,3.0,4.0,25,0.00,,,0.00,Wunderground v.1.15,2013-02-02 22:21:00,
2013-02-02 17:26:00,54.4,20.2,30.11,SW,232,4.0,8.0,26,0.00,,,0.00,Wunderground v.1.15,2013-02-02 22:26:00,
2013-02-02 17:31:00,54.1,20.8,30.11,WSW,253,6.0,6.0,27,0.00,,,0.00,Wunderground v.1.15,2013-02-02 22:31:00,
2013-02-02 17:36:00,53.7,20.5,30.11,West,259,0.0,6.0,27,0.00,,,0.00,Wunderground v.1.15,2013-02-02 22:36:00,
2013-02-02 17:41:00,53.3,21.0,30.11,West,259,2.0,2.0,28,0.00,,,0.00,Wunderground v.1.15,2013-02-02 22:41:00,
2013-02-02 17:46:00,53.0,21.6,30.10,WSW,244,3.0,6.0,29,0.00,,,0.00,Wunderground v.1.15,2013-02-02 22:46:00,
2013-02-02 17:51:00,52.7,21.3,30.10,WSW,251,4.0,4.0,29,0.00,,,0.00,Wunderground v.1.15,2013-02-02 22:51:00,
2013-02-02 17:56:00,52.3,20.9,30.10,WSW,249,5.0,6.0,29,0.00,,,0.00,Wunderground v.1.15,2013-02-02 22:56:00,
2013-02-02 18:01:00,51.9,21.4,30.10,WSW,254,1.0,3.0,30,0.00,,,0.00,Wunderground v.1.15,2013-02-02 23:01:00,
2013-02-02 18:06:00,51.7,21.2,30.10,WSW,252,1.0,5.0,30,0.00,,,0.00,Wunderground v.1.15,2013-02-02 23:06:00,
2013-02-02 18:11:00,51.4,21.7,30.10,WSW,252,0.0,2.0,31,0.00,,,0.00,Wunderground v.1.15,2013-02-02 23:11:00,
2013-02-02 18:16:00,51.2,20.8,30.10,WSW,252,0.0,2.0,30,0.00,,,0.00,Wunderground v.1.15,2013-02-02 23:16:00,
2013-02-02 18:21:00,51.0,21.4,30.10,WSW,252,0.0,0.0,31,0.00,,,0.00,Wunderground v.1.15,2013-02-02 23:21:00,
2013-02-02 18:26:00,50.8,22.0,30.10,WSW,252,0.0,0.0,32,0.00,,,0.00,Wunderground v.1.15,2013-02-02 23:26:00,
2013-02-02 18:31:00,50.5,22.4,30.10,WSW,252,0.0,0.0,33,0.00,,,0.00,Wunderground v.1.15,2013-02-02 23:31:00,
2013-02-02 18:36:00,50.2,22.9,30.09,WSW,252,0.0,0.0,34,0.00,,,0.00,Wunderground v.1.15,2013-02-02 23:36:00,
2013-02-02 18:41:00,49.7,23.1,30.09,WSW,252,0.0,0.0,35,0.00,,,0.00,Wunderground v.1.15,2013-02-02 23:41:00,
2013-02-02 18:46:00,49.3,23.4,30.10,WSW,252,0.0,0.0,36,0.00,,,0.00,Wunderground v.1.15,2013-02-02 23:46:00,
2013-02-02 18:51:00,48.9,23.1,30.10,WSW,252,0.0,0.0,36,0.00,,,0.00,Wunderground v.1.15,2013-02-02 23:51:00,
2013-02-02 18:56:00,48.7,22.9,30.11,WSW,252,0.0,0.0,36,0.00,,,0.00,Wunderground v.1.15,2013-02-02 23:56:00,
2013-02-02 19:01:00,48.5,22.7,30.12,WSW,252,0.0,0.0,36,0.00,,,0.00,Wunderground v.1.15,2013-02-03 00:01:00,
2013-02-02 19:06:00,48.3,24.5,30.12,WSW,252,0.0,0.0,39,0.00,,,0.00,Wunderground v.1.15,2013-02-03 00:06:00,
2013-02-02 19:12:00,48.1,24.3,30.13,WSW,252,0.0,0.0,39,0.00,,,0.00,Wunderground v.1.15,2013-02-03 00:12:00,
2013-02-02 19:17:00,47.9,24.1,30.13,WSW,252,0.0,0.0,39,0.00,,,0.00,Wunderground v.1.15,2013-02-03 00:17:00,
2013-02-02 19:22:00,47.7,23.3,30.13,WSW,252,0.0,0.0,38,0.00,,,0.00,Wunderground v.1.15,2013-02-03 00:22:00,
2013-02-02 19:27:00,47.6,24.4,30.13,WSW,252,0.0,0.0,40,0.00,,,0.00,Wunderground v.1.15,2013-02-03 00:27:00,
2013-02-02 19:32:00,47.5,24.3,30.13,WSW,252,0.0,0.0,40,0.00,,,0.00,Wunderground v.1.15,2013-02-03 00:32:00,
2013-02-02 19:37:00,47.5,23.1,30.13,WSW,252,0.0,1.0,38,0.00,,,0.00,Wunderground v.1.15,2013-02-03 00:37:00,
2013-02-02 19:42:00,47.8,24.0,30.13,NNE,31,0.0,1.0,39,0.00,,,0.00,Wunderground v.1.15,2013-02-03 00:42:00,
2013-02-02 19:47:00,47.9,23.5,30.13,NNE,14,0.0,5.0,38,0.00,,,0.00,Wunderground v.1.15,2013-02-03 00:47:00,
2013-02-02 19:52:00,48.0,23.6,30.13,NNE,24,4.0,8.0,38,0.00,,,0.00,Wunderground v.1.15,2013-02-03 00:52:00,
2013-02-02 19:57:00,48.6,24.1,30.13,WSW,240,1.0,13.0,38,0.00,,,0.00,Wunderground v.1.15,2013-02-03 00:57:00,
2013-02-02 20:02:00,49.2,23.4,30.13,WSW,258,3.0,7.0,36,0.00,,,0.00,Wunderground v.1.15,2013-02-03 01:02:00,
2013-02-02 20:07:00,49.6,25.0,30.13,West,271,4.0,8.0,38,0.00,,,0.00,Wunderground v.1.15,2013-02-03 01:07:00,
2013-02-02 20:12:00,49.8,25.2,30.13,WSW,246,5.0,7.0,38,0.00,,,0.00,Wunderground v.1.15,2013-02-03 01:12:00,
2013-02-02 20:17:00,50.0,26.0,30.14,SW,232,4.0,11.0,39,0.00,,,0.00,Wunderground v.1.15,2013-02-03 01:17:00,
2013-02-02 20:22:00,50.0,26.0,30.14,West,274,0.0,8.0,39,0.00,,,0.00,Wunderground v.1.15,2013-02-03 01:22:00,
2013-02-02 20:27:00,50.1,27.3,30.14,West,277,9.0,17.0,41,0.00,,,0.00,Wunderground v.1.15,2013-02-03 01:27:00,
2013-02-02 20:32:00,50.2,28.5,30.15,SW,227,14.0,19.0,43,0.00,,,0.00,Wunderground v.1.15,2013-02-03 01:32:00,
2013-02-02 20:37:00,48.4,35.1,30.15,WSW,246,8.0,25.0,60,0.00,,,0.00,Wunderground v.1.15,2013-02-03 01:37:00,
2013-02-02 20:43:00,46.9,35.7,30.15,SW,225,0.0,9.0,65,0.00,,,0.00,Wunderground v.1.15,2013-02-03 01:43:00,
2013-02-02 20:48:00,46.2,36.6,30.15,WSW,248,8.0,9.0,69,0.00,,,0.00,Wunderground v.1.15,2013-02-03 01:48:00,
2013-02-02 20:53:00,45.7,36.8,30.16,WSW,247,3.0,12.0,71,0.00,,,0.00,Wunderground v.1.15,2013-02-03 01:53:00,
2013-02-02 20:58:00,45.3,36.8,30.15,West,263,8.0,15.0,72,0.00,,,0.00,Wunderground v.1.15,2013-02-03 01:58:00,
2013-02-02 21:03:00,45.1,37.0,30.16,SW,236,4.0,13.0,73,0.00,,,0.00,Wunderground v.1.15,2013-02-03 02:03:00,
2013-02-02 21:08:00,44.7,37.6,30.15,West,264,7.0,13.0,76,0.00,,,0.00,Wunderground v.1.15,2013-02-03 02:08:00,
2013-02-02 21:13:00,44.4,38.3,30.15,WSW,244,7.0,9.0,79,0.00,,,0.00,Wunderground v.1.15,2013-02-03 02:13:00,
2013-02-02 21:18:00,44.0,38.5,30.14,West,262,5.0,9.0,81,0.00,,,0.00,Wunderground v.1.15,2013-02-03 02:18:00,
2013-02-02 21:23:00,43.7,38.9,30.15,SW,236,2.0,5.0,83,0.00,,,0.00,Wunderground v.1.15,2013-02-03 02:23:00,
2013-02-02 21:28:00,43.4,38.9,30.14,SW,225,4.0,7.0,84,0.00,,,0.00,Wunderground v.1.15,2013-02-03 02:28:00,
2013-02-02 21:33:00,43.3,39.1,30.14,WSW,239,3.0,7.0,85,0.00,,,0.00,Wunderground v.1.15,2013-02-03 02:33:00,
2013-02-02 21:38:00,43.2,39.0,30.14,WSW,256,3.0,7.0,85,0.00,,,0.00,Wunderground v.1.15,2013-02-03 02:38:00,
2013-02-02 21:43:00,43.1,39.2,30.13,WSW,251,3.0,5.0,86,0.00,,,0.00,Wunderground v.1.15,2013-02-03 02:43:00,
2013-02-02 21:48:00,42.9,39.3,30.13,WSW,249,3.0,5.0,87,0.00,,,0.00,Wunderground v.1.15,2013-02-03 02:48:00,
2013-02-02 21:53:00,42.9,39.3,30.13,WSW,250,2.0,5.0,87,0.00,,,0.00,Wunderground v.1.15,2013-02-03 02:53:00,
2013-02-02 21:58:00,42.8,39.2,30.13,WSW,250,3.0,5.0,87,0.00,,,0.00,Wunderground v.1.15,2013-02-03 02:58:00,
2013-02-02 22:03:00,42.8,39.5,30.13,WSW,250,1.0,3.0,88,0.00,,,0.00,Wunderground v.1.15,2013-02-03 03:03:00,
2013-02-02 22:08:00,42.7,39.4,30.13,WSW,250,1.0,3.0,88,0.00,,,0.00,Wunderground v.1.15,2013-02-03 03:08:00,
2013-02-02 22:13:00,42.7,39.7,30.12,WSW,250,0.0,1.0,89,0.00,,,0.00,Wunderground v.1.15,2013-02-03 03:13:00,
2013-02-02 22:18:00,42.7,39.7,30.13,WSW,250,0.0,1.0,89,0.00,,,0.00,Wunderground v.1.15,2013-02-03 03:18:00,
2013-02-02 22:23:00,42.7,39.7,30.12,WSW,250,0.0,0.0,89,0.00,,,0.00,Wunderground v.1.15,2013-02-03 03:23:00,
2013-02-02 22:28:00,42.6,39.6,30.12,WSW,250,0.0,0.0,89,0.00,,,0.00,Wunderground v.1.15,2013-02-03 03:28:00,
2013-02-02 22:33:00,42.6,39.6,30.12,WSW,250,0.0,0.0,89,0.00,,,0.00,Wunderground v.1.15,2013-02-03 03:33:00,
2013-02-02 22:38:00,42.6,39.6,30.11,WSW,250,0.0,0.0,89,0.00,,,0.00,Wunderground v.1.15,2013-02-03 03:38:00,
2013-02-02 22:43:00,42.6,39.6,30.11,WSW,250,0.0,0.0,89,0.00,,,0.00,Wunderground v.1.15,2013-02-03 03:43:00,
2013-02-02 22:48:00,42.6,39.9,30.11,WSW,250,0.0,0.0,90,0.00,,,0.00,Wunderground v.1.15,2013-02-03 03:48:00,
2013-02-02 22:53:00,42.6,39.9,30.10,WSW,250,0.0,0.0,90,0.00,,,0.00,Wunderground v.1.15,2013-02-03 03:53:00,
2013-02-02 22:59:00,42.6,39.9,30.10,WSW,250,0.0,0.0,90,0.00,,,0.00,Wunderground v.1.15,2013-02-03 03:59:00,
2013-02-02 23:04:00,42.5,40.1,30.10,WSW,250,0.0,0.0,91,0.00,,,0.00,Wunderground v.1.15,2013-02-03 04:04:00,
2013-02-02 23:09:00,42.5,40.1,30.09,WSW,250,0.0,0.0,91,0.00,,,0.00,Wunderground v.1.15,2013-02-03 04:09:00,
2013-02-02 23:14:00,42.4,40.0,30.09,WSW,250,0.0,0.0,91,0.00,,,0.00,Wunderground v.1.15,2013-02-03 04:14:00,
2013-02-02 23:19:00,42.4,40.0,30.09,WSW,250,0.0,0.0,91,0.00,,,0.00,Wunderground v.1.15,2013-02-03 04:19:00,
2013-02-02 23:24:00,42.4,40.0,30.09,WSW,250,0.0,0.0,91,0.00,,,0.00,Wunderground v.1.15,2013-02-03 04:24:00,
2013-02-02 23:29:00,42.3,40.1,30.09,WSW,250,0.0,0.0,92,0.00,,,0.00,Wunderground v.1.15,2013-02-03 04:29:00,
2013-02-02 23:34:00,42.3,40.1,30.09,WSW,250,0.0,0.0,92,0.00,,,0.00,Wunderground v.1.15,2013-02-03 04:34:00,
2013-02-02 23:39:00,42.3,40.1,30.09,WSW,250,0.0,0.0,92,0.00,,,0.00,Wunderground v.1.15,2013-02-03 04:39:00,
2013-02-02 23:44:00,42.2,40.0,30.08,WSW,250,0.0,0.0,92,0.00,,,0.00,Wunderground v.1.15,2013-02-03 04:44:00,
2013-02-02 23:48:00,44.9,34.2,29.78,NNE,21,3.0,22.0,66,0.00,,,0.15,Wunderground v.1.15,2013-02-03 04:48:00,
2013-02-02 23:49:00,42.1,39.9,30.08,WSW,250,0.0,0.0,92,0.00,,,0.00,Wunderground v.1.15,2013-02-03 04:49:00,
2013-02-02 23:50:00,44.9,34.2,29.78,WNW,302,4.0,6.0,66,0.00,,,0.15,Wunderground v.1.15,2013-02-03 04:50:00,
2013-02-02 23:51:00,44.9,34.2,29.78,NE,35,2.0,7.0,66,0.00,,,0.15,Wunderground v.1.15,2013-02-03 04:51:00,
2013-02-02 23:52:00,44.9,34.2,29.78,SW,234,10.0,10.0,66,0.00,,,0.15,Wunderground v.1.15,2013-02-03 04:52:00,
2013-02-02 23:53:00,44.8,34.1,29.78,WNW,294,6.0,19.0,66,0.00,,,0.15,Wunderground v.1.15,2013-02-03 04:53:00,
2013-02-02 23:54:00,42.0,39.8,30.08,WSW,250,0.0,0.0,92,0.00,,,0.00,Wunderground v.1.15,2013-02-03 04:54:00,
2013-02-02 23:55:00,44.8,33.7,29.78,WSW,257,4.0,19.0,65,0.00,,,0.00,Wunderground v.1.15,2013-02-03 04:55:00,
2013-02-02 23:56:00,44.8,33.7,29.78,WSW,247,2.0,19.0,65,0.00,,,0.00,Wunderground v.1.15,2013-02-03 04:56:00,
2013-02-02 23:57:00,44.7,34.0,29.79,North,355,0.0,19.0,66,0.00,,,0.00,Wunderground v.1.15,2013-02-03 04:57:00,
2013-02-02 23:58:00,44.7,33.6,29.79,SW,215,2.0,19.0,65,0.00,,,0.00,Wunderground v.1.15,2013-02-03 04:58:00,
2013-02-02 23:59:00,41.9,39.7,30.08,WSW,250,0.0,0.0,92,0.00,,,0.00,Wunderground v.1.15,2013-02-03 04:59:00,